Location: Forst
(46.9333°N, 15.4333°E)
Time: 05:23:31
(UTC+00:00)

CSL-04 Rocket - Pass Details

Date: 01 December 2020
Orbit: 807 x 859 km, 98.9° (Epoch: 18 January)

Event Time Altitude Azimuth Distance (km) Brightness Sun altitude
Exits shadow 17:44:06 54° 23° (NNE) 984 3.8 -25.3°
Drops below altitude 10° 17:48:25 10° 351° (N) 2,406 6.1 -26.1°
Sets 17:50:46 0° 348° (NNW) 3,339 6.9 -26.5°
